Date String (YYYY-MM-DD hh:mm:ss) UTC,Instrument flags,Ambient pressure (hPa),Sample flow (lpm),Bypass flow (lpm),Sample temperature (°C),Ambient temperature (°C),ASC tube jacket temperature (°C),LED temperature (°C),Box temperature (°C),Sample RH (%),Span deviation,Mass concentration (μg/m³),Mass concentration (μg/m³),Mass concentration (μg/m³)
DateTimeUTC,F1_M11,P_M11,Q1_M11,Q2_M11,T1_M11,T2_M11,T3_M11,T4_M11,T5_M11,U1_M11,ZSPAN_M11,X0_M11,X2_M11,X1_M11
2022-01-13 03:00:00,,0831.2,5.00,0.00,26.4,25.7,00.0,35.4,28.2,10.3,0000.0,0000.50,0000.04,0000.01
2022-01-13 03:01:00,,0831.2,5.01,0.00,26.5,25.7,00.0,35.4,28.2,10.3,0000.0,0000.49,0000.04,0000.01
2022-01-13 03:02:00,,0831.2,4.98,0.00,26.5,25.7,00.0,35.4,28.2,10.3,0000.0,0000.49,0000.04,0000.01
2022-01-13 03:03:00,,0831.1,5.02,0.00,26.5,25.7,00.0,35.4,28.3,10.2,0000.0,0000.49,0000.04,0000.01
2022-01-13 03:04:00,,0831.2,4.98,0.00,26.5,25.7,00.0,35.4,28.3,10.2,0000.0,0000.49,0000.04,0000.01
2022-01-13 03:05:00,,0831.2,5.02,0.00,26.5,25.7,00.0,35.5,28.3,10.3,0000.0,0000.49,0000.04,0000.01
2022-01-13 03:06:00,,0831.2,4.99,0.00,26.5,25.8,00.0,35.5,28.2,10.4,0000.0,0000.71,0000.05,0000.01
2022-01-13 03:07:00,,0831.1,5.00,0.00,26.5,25.8,00.0,35.5,28.3,10.5,0000.0,0001.31,0000.07,0000.01
2022-01-13 03:08:00,,0831.0,5.00,0.00,26.5,25.8,00.0,35.5,28.3,10.6,0000.0,0001.15,0000.06,0000.01
2022-01-13 03:09:00,,0831.0,5.02,0.00,26.5,25.8,00.0,35.5,28.3,10.4,0000.0,0001.15,0000.06,0000.01
2022-01-13 03:10:00,,0831.0,4.99,0.00,26.5,25.8,00.0,35.5,28.3,10.5,0000.0,0001.15,0000.06,0000.01
2022-01-13 03:11:00,,0831.0,4.99,0.00,26.5,25.7,00.0,35.5,28.3,10.5,0000.0,0001.13,0000.05,0000.01
2022-01-13 03:12:00,,0831.0,5.01,0.00,26.5,25.7,00.0,35.5,28.3,10.5,0000.0,0001.08,0000.05,0000.01
2022-01-13 03:13:00,,0831.0,4.99,0.00,26.4,25.6,00.0,35.5,28.2,10.6,0000.0,0001.04,0000.04,0000.01
2022-01-13 03:14:00,,0831.0,5.01,0.00,26.4,25.5,00.0,35.5,28.1,10.6,0000.0,0001.04,0000.04,0000.01
2022-01-13 03:15:00,,0831.0,5.00,0.00,26.4,25.5,00.0,35.5,28.1,10.7,0000.0,0001.04,0000.04,0000.01
2022-01-13 03:16:00,,0830.9,5.00,0.00,26.3,25.4,00.0,35.4,28.0,10.7,0000.0,0001.04,0000.04,0000.01
2022-01-13 03:17:00,,0831.0,5.00,0.00,26.3,25.3,00.0,35.4,27.9,10.7,0000.0,0001.18,0000.04,0000.01
2022-01-13 03:18:00,,0830.9,5.00,0.00,26.2,25.3,00.0,35.4,27.9,10.7,0000.0,0001.55,0000.01,0000.01
2022-01-13 03:19:00,,0830.9,5.01,0.00,26.2,25.3,00.0,35.4,27.8,10.7,0000.0,0001.35,0000.01,0000.01
2022-01-13 03:20:00,,0830.9,4.99,0.00,26.1,25.2,00.0,35.3,27.8,10.7,0000.0,0001.35,0000.01,0000.01
2022-01-13 03:21:00,,0830.9,5.01,0.00,26.1,25.2,00.0,35.3,27.8,10.7,0000.0,0001.34,0000.01,0000.00
2022-01-13 03:22:00,,0830.9,5.00,0.00,26.1,25.3,00.0,35.3,27.8,10.7,0000.0,0001.34,0000.01,0000.00
2022-01-13 03:23:00,,0831.0,5.00,0.00,26.1,25.3,00.0,35.3,27.8,10.7,0000.0,0001.33,0000.00,0000.00
2022-01-13 03:24:00,,0830.9,5.00,0.00,26.1,25.3,00.0,35.3,27.8,10.7,0000.0,0001.33,0000.00,0000.00
2022-01-13 03:25:00,,0830.9,5.01,0.00,26.1,25.3,00.0,35.2,27.8,10.8,0000.0,0001.33,0000.00,0000.00
2022-01-13 03:26:00,,0830.9,4.98,0.00,26.1,25.3,00.0,35.2,27.8,10.8,0000.0,0001.33,0000.00,0000.00
2022-01-13 03:27:00,,0830.9,5.02,0.00,26.1,25.3,00.0,35.2,27.8,10.9,0000.0,0001.33,0000.00,0000.00
2022-01-13 03:28:00,,0830.9,4.99,0.00,26.1,25.3,00.0,35.2,27.9,10.9,0000.0,0001.09,0000.00,0000.00
2022-01-13 03:29:00,,0830.9,4.98,0.00,26.1,25.3,00.0,35.2,27.9,10.7,0000.0,0000.00,0000.00,0000.00
2022-01-13 03:30:00,,0830.9,5.02,0.00,26.1,25.3,00.0,35.2,27.9,10.7,0000.0,0000.13,0000.02,0000.00
2022-01-13 03:31:00,,0830.9,4.99,0.00,26.1,25.3,00.0,35.2,27.9,10.7,0000.0,0000.16,0000.03,0000.00
2022-01-13 03:32:00,,0830.9,5.01,0.00,26.1,25.4,00.0,35.2,27.9,10.6,0000.0,0000.17,0000.03,0000.00
2022-01-13 03:33:00,,0830.8,5.00,0.00,26.1,25.4,00.0,35.2,27.9,10.6,0000.0,0000.26,0000.05,0000.00
2022-01-13 03:34:00,,0830.9,5.00,0.00,26.1,25.4,00.0,35.2,27.9,10.7,0000.0,0000.53,0000.07,0000.00
2022-01-13 03:35:00,,0830.8,5.00,0.00,26.2,25.4,00.0,35.2,27.9,10.8,0000.0,0000.66,0000.09,0000.00
2022-01-13 03:36:00,,0830.7,5.00,0.00,26.2,25.4,00.0,35.2,27.9,10.8,0000.0,0000.66,0000.09,0000.00
2022-01-13 03:37:00,,0830.8,5.00,0.00,26.2,25.4,00.0,35.2,27.9,10.8,0000.0,0000.66,0000.09,0000.00
2022-01-13 03:38:00,,0830.9,4.99,0.00,26.2,25.4,00.0,35.2,27.9,10.8,0000.0,0000.66,0000.09,0000.00
2022-01-13 03:39:00,,0830.9,5.00,0.00,26.2,25.4,00.0,35.2,27.9,10.7,0000.0,0001.19,0000.09,0000.00
2022-01-13 03:40:00,,0830.9,5.00,0.00,26.2,25.4,00.0,35.2,27.9,10.7,0000.0,0001.89,0000.09,0000.00
2022-01-13 03:41:00,,0830.9,5.00,0.00,26.1,25.3,00.0,35.2,27.8,10.7,0000.0,0001.78,0000.07,0000.00
2022-01-13 03:42:00,,0830.9,5.00,0.00,26.1,25.3,00.0,35.2,27.8,10.8,0000.0,0001.75,0000.07,0000.00
2022-01-13 03:43:00,,0830.9,5.01,0.00,26.1,25.3,00.0,35.1,27.8,10.8,0000.0,0001.81,0000.09,0000.00
2022-01-13 03:44:00,,0831.0,5.01,0.00,26.1,25.3,00.0,35.1,27.8,10.6,0000.0,0001.86,0000.10,0000.00
2022-01-13 03:45:00,,0830.9,4.99,0.00,26.1,25.3,00.0,35.1,27.8,10.5,0000.0,0001.68,0000.09,0000.00
2022-01-13 03:46:00,,0831.0,5.00,0.00,26.1,25.3,00.0,35.1,27.8,10.4,0000.0,0001.50,0000.07,0000.00
2022-01-13 03:47:00,,0830.9,5.00,0.00,26.1,25.3,00.0,35.1,27.9,10.4,0000.0,0001.54,0000.09,0000.00
2022-01-13 03:48:00,,0831.0,5.01,0.00,26.1,25.4,00.0,35.1,27.9,10.3,0000.0,0001.85,0000.12,0000.00
2022-01-13 03:49:00,,0830.9,4.99,0.00,26.1,25.4,00.0,35.1,27.9,10.4,0000.0,0002.35,0000.13,0000.01
2022-01-13 03:50:00,,0831.0,5.01,0.00,26.2,25.4,00.0,35.1,27.9,10.4,0000.0,0001.91,0000.13,0000.01
2022-01-13 03:51:00,,0830.9,5.00,0.00,26.2,25.4,00.0,35.1,27.9,10.6,0000.0,0001.13,0000.14,0000.01
2022-01-13 03:52:00,,0830.9,5.01,0.00,26.2,25.5,00.0,35.1,27.9,10.6,0000.0,0001.13,0000.14,0000.01
2022-01-13 03:53:00,,0831.0,4.99,0.00,26.2,25.5,00.0,35.1,28.0,10.6,0000.0,0001.10,0000.12,0000.01
2022-01-13 03:54:00,,0831.1,5.00,0.00,26.2,25.5,00.0,35.1,27.9,10.7,0000.0,0001.53,0000.11,0000.01
2022-01-13 03:55:00,,0831.1,5.01,0.00,26.2,25.5,00.0,35.1,28.0,10.8,0000.0,0001.75,0000.09,0000.01
2022-01-13 03:56:00,,0831.0,5.00,0.00,26.2,25.5,00.0,35.2,28.0,10.8,0000.0,0001.74,0000.09,0000.01
2022-01-13 03:57:00,,0831.0,5.01,0.00,26.2,25.5,00.0,35.2,28.0,10.8,0000.0,0001.76,0000.10,0000.01
2022-01-13 03:58:00,,0831.1,4.99,0.00,26.2,25.5,00.0,35.2,28.0,10.7,0000.0,0002.01,0000.10,0000.01
2022-01-13 03:59:00,,0831.1,5.02,0.00,26.2,25.5,00.0,35.2,28.0,10.5,0000.0,0002.01,0000.07,0000.01
